COSMOS 1275 DEB, 17633

Orbit data source: Space-Track

COSMOS 1275 DEB, 17633 is space debris in LEO originally from a launch on Thu, 04 Jun 1981 UTC launched from the Plesetsk Missile And Space Complex (PKMTR). Debris objects in space refer to the collection of defunct objects orbiting the Earth. Examples of debris include non-operational satellites, rocket bodies, and fragments generated from explosions, collisions, or faulty payload assembly.

Loading next visibility...
Identifier
17633, 1981-053LC
Orbit
LEO
Country
Flag of CISCIS
Related business
Manufacturer
Unknown
Mission
Spacecraft
Bus & Motor
Unknown
Mass
Unknown
Launch date (UTC)
1981-06-04 (45 years ago)
Launch vehicle
Unknown
Launch site
Plesetsk Missile And Space Complex (PKMTR)
Object type
Payload
Rocket body
Debris
Shape & HBR
Unknown shape, 0.1 m
Radar Cross Section
Medium (>0.1 m² and <1 m²)

Expand to show TLE details & history
Last TLE update: 2 days ago

TLE from 2 days ago
0 COSMOS 1275 DEB
1 17633U 81053LC  26208.19007841  .00002814  00000-0  20870-2 0  9999
2 17633  83.0627 104.2844 0154624 275.1970 239.9968 13.89390351 46888
Epoch: 2026-07-27T04:33Z
TLE epoch observation values (Epoch: 2026-07-27T04:33:42.774Z)
Latitude
26.15112°
Longitude
-92.42829°
Altitude
991.778 km
Speed
7.329 km/s
True Right ascension
18h 43m 30s
True Declination
26° 01' 11"
Sunlit
Object was in full shadow at epoch
Visualization orbit readout
Latitude
Unknown
Longitude
Unknown
Altitude
Unknown
Speed
Unknown
Apparent Right ascension
Unknown
Apparent Declination
Unknown
Sunlit
N/A
Visualization observer readout
Local Sidereal Time
10:26:23
Azimuth
Unknown
Elevation
Unknown
Doppler factor
Unknown
Orbital elements
Apogee altitude
1,040.86 km
Perigee altitude
814.923 km
Semi-major axis
7,306.028 km
Eccentricity
0.01546
Inclination
83.0627°
RAAN
104.2844°
Arg. of periapsis
275.197°
True anomaly
238.47724°
Mean anomaly
239.9968°
Eccentric anomaly
239.23554°
Mean motion
3.47553 °/min
Orbital period
103.58 mins
BSTAR
0.002087
Loading maneuver chart data...
Computing Atmospheric mass density...
Loading historical data...
Loading historical data...
Loading historical data...
Loading historical data...
Loading historical data...
Loading historical data...
Loading historical data...

Documentation

Showing up to 5 results
|